Flight Track Log - Related Links

Times and Time Zones

All times are in EDT time to prevent confusion due to time zone crossing. See the AWE2044 flight status page for this flight to view local times or setup timezone preferences in your user account.

Time Position Orientation Groundspeed Altitude Reporting Facility
EDT Latitude Longitude Course Direction KTS MPH feet Rate Location/Type
Mon 12:30:25 PM 44.9333 -93.2500 117° Southeast 176 203 3,200  Level Minneapolis TRACON
Mon 12:31:35 PM 44.9883 -93.2003 33° Northeast 216 249 5,900 2,545 Climbing Minneapolis Center
Mon 12:32:00 PM 44.7924 -92.7362 117° Southeast  Level Estimated
Mon 12:32:37 PM 45.0078 -93.1156 72° East 248 285 8,800  Level Minneapolis Center
Mon 12:33:00 PM 44.7621 -92.5747 113° Southeast  Level Estimated
Mon 12:33:39 PM 44.9706 -93.0156 118° Southeast 290 334 10,700  Level Minneapolis Center
Mon 12:34:00 PM 44.7315 -92.4133 109° East  Level Estimated
Mon 12:34:40 PM 44.9158 -92.9058 125° Southeast 350 403 12,400  Level Minneapolis Center
Mon 12:35:00 PM 44.7011 -92.2536 117° Southeast  Level Estimated
Mon 12:35:42 PM 44.8450 -92.7678 126° Southeast 358 412 15,600  Level Minneapolis Center
Mon 12:36:44 PM 44.7833 -92.6486 126° Southeast 374 430 17,900 2,323 Climbing Minneapolis Center
Mon 12:37:46 PM 44.7203 -92.5250 126° Southeast 385 443 20,400 2,049 Climbing Minneapolis Center
Mon 12:38:47 PM 44.6561 -92.4011 126° Southeast 390 449 22,100 1,512 Climbing Minneapolis Center
Mon 12:39:49 PM 44.5872 -92.2692 126° Southeast 407 468 23,500 1,645 Climbing Minneapolis Center
Mon 12:40:51 PM 44.5172 -92.1347 126° Southeast 422 486 25,500 1,597 Climbing Minneapolis Center
Mon 12:41:53 PM 44.4464 -91.9992 126° Southeast 427 491 26,800 1,403 Climbing Minneapolis Center
Mon 12:42:55 PM 44.3617 -91.8308 125° Southeast 436 502 28,400 1,065 Climbing Minneapolis Center
Mon 12:43:57 PM 44.3028 -91.6747 118° Southeast 450 518 29,000 290 Climbing Minneapolis Center
Mon 12:44:59 PM 44.2433 -91.5172 118° Southeast 455 524 29,000  Level Minneapolis Center
Mon 12:46:00 PM 44.1842 -91.3633 118° Southeast 455 524 29,000  Level Minneapolis Center
Mon 12:47:02 PM 44.1275 -91.2172 118° Southeast 454 522 29,000  Level Minneapolis Center
Mon 12:48:04 PM 44.0683 -91.0642 118° Southeast 453 521 29,000  Level Minneapolis Center
Mon 12:49:06 PM 43.9978 -90.8833 118° Southeast 450 518 29,000 244 Level Minneapolis Center
Mon 12:50:07 PM 43.9372 -90.7306 119° Southeast 452 520 29,500 683 Climbing Minneapolis Center
Mon 12:51:09 PM 43.8839 -90.5678 114° Southeast 463 533 30,400 774 Climbing Minneapolis Center
Mon 12:52:11 PM 43.8519 -90.3964 104° East 483 556 31,100 1,258 Climbing Minneapolis Center
Mon 12:53:13 PM 43.8103 -90.1825 105° East 484 557 33,000 919 Climbing Minneapolis Center
Mon 12:54:15 PM 43.7758 -90.0053 105° East 480 552 33,000  Level Minneapolis Center
Mon 12:55:16 PM 43.7406 -89.8300 106° East 478 550 33,000  Level Minneapolis Center
Mon 12:56:18 PM 43.7058 -89.6531 105° East 478 550 33,000  Level Minneapolis Center
Mon 12:57:20 PM 43.6706 -89.4761 105° East 478 550 33,000  Level Minneapolis Center
Mon 12:58:22 PM 43.6353 -89.3006 105° East 478 550 33,000  Level Minneapolis Center
Mon 12:59:24 PM 43.5925 -89.0906 106° East 478 550 33,000  Level Minneapolis Center
Mon 01:00:26 PM 43.5564 -88.9161 106° East 477 549 33,000  Level Minneapolis Center
Mon 01:01:28 PM 43.5194 -88.7403 106° East 477 549 33,000  Level Minneapolis Center
Mon 01:02:30 PM 43.4817 -88.5619 106° East 477 549 33,000  Level Minneapolis Center
Mon 01:03:32 PM 43.4436 -88.3867 107° East 477 549 33,000  Level Minneapolis Center
Mon 01:04:34 PM 43.4050 -88.2019 106° East 476 548 33,000  Level Minneapolis Center
Mon 01:05:36 PM 43.3675 -88.0283 106° East 476 548 33,000  Level Minneapolis Center
Mon 01:06:37 PM 43.3294 -87.8553 107° East 476 548 33,000  Level Minneapolis Center
Mon 01:07:39 PM 43.2911 -87.6814 107° East 476 548 33,000 636 Level Minneapolis Center
Mon 01:09:08 PM 43.2311 -87.4042 106° East 473 544 34,600 1,192 Climbing Chicago Center
Mon 01:10:10 PM 43.1964 -87.2544 108° East 469 540 36,000 1,024 Climbing Chicago Center
Mon 01:11:11 PM 43.1603 -87.0933 107° East 446 513 36,700 488 Climbing Chicago Center
Mon 01:12:13 PM 43.1167 -86.8947 107° East 452 520 37,000 145 Climbing Chicago Center
Mon 01:13:15 PM 43.0775 -86.7253 108° East 459 528 37,000  Level Chicago Center
Mon 01:14:17 PM 43.0400 -86.5667 108° East 455 524 37,000  Level Chicago Center
Mon 01:15:19 PM 43.0025 -86.4039 107° East 452 520 37,000  Level Chicago Center
Mon 01:16:21 PM 42.9656 -86.2447 108° East 447 514 37,000  Level Chicago Center
Mon 01:17:23 PM 42.9214 -86.0589 108° East 439 505 37,000  Level Chicago Center
Mon 01:18:25 PM 42.8836 -85.9019 108° East 444 511 37,000  Level Chicago Center
Mon 01:19:27 PM 42.8450 -85.7389 108° East 453 521 37,000  Level Chicago Center
Mon 01:20:29 PM 42.8044 -85.5714 108° East 465 535 37,000  Level Chicago Center
Mon 01:21:31 PM 42.7564 -85.4075 112° Southeast 470 541 37,000  Level Chicago Center
Mon 01:22:33 PM 42.6886 -85.2178 116° Southeast 468 539 37,000  Level Chicago Center
Mon 01:23:35 PM 42.6336 -85.0583 115° Southeast 467 537 37,000  Level Chicago Center
Mon 01:24:28 PM 42.5872 -84.9317 116° Southeast 468 539 37,000  Level Cleveland Center
Mon 01:25:30 PM 42.5286 -84.7772 117° Southeast 466 536 37,000  Level Cleveland Center
Mon 01:26:32 PM 42.4531 -84.6050 121° Southeast 458 527 37,000  Level Cleveland Center
Mon 01:27:34 PM 42.3886 -84.4567 120° Southeast 458 527 37,000  Level Cleveland Center
Mon 01:28:36 PM 42.3261 -84.3100 120° Southeast 457 526 37,000  Level Cleveland Center
Mon 01:29:37 PM 42.2608 -84.1622 121° Southeast 457 526 37,000  Level Cleveland Center
Mon 01:30:39 PM 42.1978 -84.0156 120° Southeast 457 526 37,000  Level Cleveland Center
Mon 01:32:43 PM 42.0553 -83.6936 121° Southeast 460 529 37,000  Level Cleveland Center
Mon 01:33:45 PM 41.9842 -83.5347 121° Southeast 463 533 37,000  Level Cleveland Center
Mon 01:34:47 PM 41.9161 -83.3836 121° Southeast 464 534 37,000  Level Cleveland Center
Mon 01:35:49 PM 41.8567 -83.2517 121° Southeast 464 534 37,000  Level Cleveland Center
Mon 01:36:51 PM 41.7767 -83.0722 121° Southeast 467 537 37,000  Level Cleveland Center
Mon 01:37:53 PM 41.7094 -82.9244 121° Southeast 470 541 37,000  Level Cleveland Center
Mon 01:38:55 PM 41.6411 -82.7753 121° Southeast 470 541 37,000  Level Cleveland Center
Mon 01:39:57 PM 41.5642 -82.6058 121° Southeast 470 541 37,000  Level Cleveland Center
Mon 01:40:59 PM 41.4953 -82.4572 122° Southeast 470 541 37,000  Level Cleveland Center
Mon 01:42:01 PM 41.4269 -82.3103 122° Southeast 469 540 37,000  Level Cleveland Center
Mon 01:43:03 PM 41.3606 -82.1619 121° Southeast 465 535 37,000  Level Cleveland Center
Mon 01:44:05 PM 41.3117 -81.9861 110° East 485 558 37,000  Level Cleveland Center
Mon 01:45:06 PM 41.2664 -81.8189 110° East 485 558 37,000  Level Cleveland Center
Mon 01:46:09 PM 41.2219 -81.6492 109° East 485 558 37,000  Level Cleveland Center
Mon 01:47:11 PM 41.1761 -81.4803 110° East 485 558 37,000  Level Cleveland Center
Mon 01:48:13 PM 41.1261 -81.2961 110° East 484 557 37,000  Level Cleveland Center
Mon 01:49:15 PM 41.0789 -81.1267 110° East 485 558 37,000  Level Cleveland Center
Mon 01:50:17 PM 41.0278 -80.9436 110° East 485 558 37,000  Level Cleveland Center
Mon 01:51:19 PM 40.9814 -80.7744 110° East 486 559 37,000  Level Cleveland Center
Mon 01:52:21 PM 40.9350 -80.6061 110° East 487 560 37,000  Level Cleveland Center
Mon 01:53:23 PM 40.8867 -80.4369 111° Southeast 488 562 37,000  Level Cleveland Center
Mon 01:54:25 PM 40.8322 -80.2447 110° East 488 562 37,000  Level Cleveland Center
Mon 01:55:27 PM 40.7778 -80.0847 114° Southeast 481 554 37,000  Level Cleveland Center
Mon 01:56:29 PM 40.7181 -79.9167 115° Southeast 470 541 37,000  Level Cleveland Center
Mon 01:57:31 PM 40.6597 -79.7611 116° Southeast 470 541 37,000  Level Cleveland Center
Mon 01:58:33 PM 40.5811 -79.6403 131° Southeast 434 499 37,000 -290 Level Cleveland Center
Mon 01:59:35 PM 40.4997 -79.5233 132° Southeast 433 498 36,400 -1,440 Descending Cleveland Center
Mon 02:00:38 PM 40.4333 -79.3853 122° Southeast 462 532 34,000 -1,296 Descending Cleveland Center
Mon 02:01:40 PM 40.3958 -79.2078 105° East 489 563 33,700 -919 Descending Cleveland Center
Mon 02:02:42 PM 40.3600 -79.0350 105° East 493 567 32,100 -1,548 Descending Cleveland Center
Mon 02:03:44 PM 40.3203 -78.8269 104° East 496 571 30,500 -1,355 Descending Cleveland Center
Mon 02:04:46 PM 40.3158 -78.6386 92° East 517 595 29,300 -1,161 Descending Cleveland Center
Mon 02:05:48 PM 40.3164 -78.4503 90° East 521 600 28,100 -1,161 Descending Cleveland Center
Mon 02:06:50 PM 40.3153 -78.2683 90° East 508 585 26,900 -1,258 Descending Cleveland Center
Mon 02:07:52 PM 40.3133 -78.0625 91° East 479 551 25,500 -1,016 Descending Cleveland Center
Mon 02:08:54 PM 40.3131 -77.8944 90° East 473 544 24,800 -1,403 Descending Cleveland Center
Mon 02:09:56 PM 40.3006 -77.7364 96° East 449 517 22,600 -1,968 Descending Cleveland Center
Mon 02:12:00 PM 40.2625 -77.4261 99° East 421 484 18,700 -1,605 Descending Cleveland Center
Mon 02:12:48 PM 40.2458 -77.2950 99° East 407 468 18,000 -389 Descending New York Center
Mon 02:13:48 PM 40.2297 -77.1683 99° East 393 452 18,000  Level New York Center
Mon 02:14:48 PM 40.2108 -77.0172 99° East 393 452 18,000 -200 Level New York Center
Mon 02:15:48 PM 40.1933 -76.8742 99° East 393 452 17,600 -1,000 Descending New York Center
Mon 02:16:48 PM 40.1769 -76.7425 99° East 388 447 16,000 -1,700 Descending New York Center
Mon 02:17:48 PM 40.1622 -76.6242 99° East 368 423 14,200 -1,667 Descending New York Center
Mon 02:19:48 PM 40.1306 -76.3717 99° East 331 381 11,000 -1,067 Descending New York Center
Mon 02:20:48 PM 40.1175 -76.2514 98° East 331 381 11,000 -50 Level New York Center
Mon 02:21:48 PM 40.1100 -76.1419 95° East 336 387 10,900 -500 Descending New York Center
Mon 02:22:48 PM 40.1028 -76.0247 95° East 330 380 10,000 -950 Descending New York Center
Mon 02:23:48 PM 40.0933 -75.9075 96° East 309 356 9,000 -1,100 Descending New York Center
Mon 02:24:48 PM 40.0436 -75.8522 140° Southeast 244 281 7,800 -1,250 Descending New York Center
Mon 02:25:48 PM 39.9789 -75.8094 153° Southeast 244 281 6,500 -643 Descending New York Center
Mon 02:27:36 PM 39.9000 -75.7500 150° Southeast 169 194 6,000 -179 Descending Philadelphia TRACON
Mon 02:28:36 PM 39.8500 -75.7333 166° South 169 194 6,000 -682 Level Philadelphia TRACON
Mon 02:29:48 PM 39.8042 -75.6969 149° Southeast 171 197 4,500 -909 Descending New York Center
Mon 02:30:48 PM 39.7961 -75.6425 101° East 157 181 4,000 -263 Descending New York Center
Mon 02:31:42 PM 39.8000 -75.5833 85° East 187 215 4,000 -53 Level Philadelphia TRACON
Mon 02:32:42 PM 39.8167 -75.5167 72° East 180 207 3,900 -500 Descending Philadelphia TRACON
Mon 02:33:42 PM 39.8167 -75.4500 90° East 162 186 3,000 -900 Descending Philadelphia TRACON
Mon 02:34:42 PM 39.8333 -75.4000 67° East 160 184 2,100 -793 Descending Philadelphia TRACON
Mon 02:35:43 PM 39.8500 -75.3500 67° East 122 140 1,400 -694 Descending Philadelphia TRACON
Mon 02:36:43 PM 39.8500 -75.3167 90° East 118 136 700 -700 Descending Philadelphia TRACON
Mon 02:38:00 PM 39.8722 -75.2409 69° East  Level Estimated
Mon 02:45:00 PM 39.8722 -75.2409 North  Level Estimated

Login

Don't have an account? Register now (free) for customized features, flight alerts, and more!